Year,Month,Day,Hour,Minute,Value (Times are PST for temperature in C)
2008,05,31,00,00,8.40
2008,05,31,00,01,8.40
2008,05,31,00,02,8.40
2008,05,31,00,03,8.40
2008,05,31,00,04,8.40
2008,05,31,00,05,8.40
2008,05,31,00,06,8.40
2008,05,31,00,07,8.40
2008,05,31,00,08,8.40
2008,05,31,00,09,8.40
2008,05,31,00,10,8.40
2008,05,31,00,11,8.40
2008,05,31,00,12,8.40
2008,05,31,00,13,8.30
2008,05,31,00,14,8.30
2008,05,31,00,15,8.30
2008,05,31,00,16,8.30
2008,05,31,00,17,8.30
2008,05,31,00,18,8.30
2008,05,31,00,19,8.20
2008,05,31,00,20,8.20
2008,05,31,00,21,8.20
2008,05,31,00,22,8.20
2008,05,31,00,23,8.20
2008,05,31,00,24,8.20
2008,05,31,00,25,8.20
2008,05,31,00,26,8.20
2008,05,31,00,27,8.20
2008,05,31,00,28,8.20
2008,05,31,00,29,8.20
2008,05,31,00,30,8.20
2008,05,31,00,31,8.20
2008,05,31,00,32,8.20
2008,05,31,00,33,8.20
2008,05,31,00,34,8.20
2008,05,31,00,35,8.20
2008,05,31,00,36,8.20
2008,05,31,00,37,8.20
2008,05,31,00,38,8.20
2008,05,31,00,39,8.20
2008,05,31,00,40,8.20
2008,05,31,00,41,8.20
2008,05,31,00,42,8.20
2008,05,31,00,43,8.20
2008,05,31,00,44,8.20
2008,05,31,00,45,8.20
2008,05,31,00,46,8.20
2008,05,31,00,47,8.20
2008,05,31,00,48,8.20
2008,05,31,00,49,8.20
2008,05,31,00,50,8.10
2008,05,31,00,51,8.10
2008,05,31,00,52,8.10
2008,05,31,00,53,8.10
2008,05,31,00,54,8.10
2008,05,31,00,55,8.10
2008,05,31,00,56,8.10
2008,05,31,00,57,8.00
2008,05,31,00,58,8.00
2008,05,31,00,59,8.00
2008,05,31,01,00,8.00
2008,05,31,01,01,8.00
2008,05,31,01,02,8.10
2008,05,31,01,03,8.10
2008,05,31,01,04,8.10
2008,05,31,01,05,8.10
2008,05,31,01,06,8.10
2008,05,31,01,07,8.10
2008,05,31,01,08,8.10
2008,05,31,01,09,8.10
2008,05,31,01,10,8.10
2008,05,31,01,11,8.10
2008,05,31,01,12,8.10
2008,05,31,01,13,8.10
2008,05,31,01,14,8.10
2008,05,31,01,15,8.10
2008,05,31,01,16,8.10
2008,05,31,01,17,8.10
2008,05,31,01,18,8.10
2008,05,31,01,19,8.10
2008,05,31,01,20,8.10
2008,05,31,01,21,8.10
2008,05,31,01,22,8.10
2008,05,31,01,23,8.10
2008,05,31,01,24,8.10
2008,05,31,01,25,8.10
2008,05,31,01,26,8.10
2008,05,31,01,27,8.10
2008,05,31,01,28,8.10
2008,05,31,01,29,8.10
2008,05,31,01,30,8.00
2008,05,31,01,31,8.00
2008,05,31,01,32,8.00
2008,05,31,01,33,8.00
2008,05,31,01,34,7.90
2008,05,31,01,35,7.90
2008,05,31,01,36,7.90
2008,05,31,01,37,7.80
2008,05,31,01,38,7.80
2008,05,31,01,39,7.80
2008,05,31,01,40,7.80
2008,05,31,01,41,7.80
2008,05,31,01,42,7.80
2008,05,31,01,43,7.80
2008,05,31,01,44,7.80
2008,05,31,01,45,7.80
2008,05,31,01,46,7.80
2008,05,31,01,47,7.80
2008,05,31,01,48,7.80
2008,05,31,01,49,7.80
2008,05,31,01,50,7.80
2008,05,31,01,51,7.80
2008,05,31,01,52,7.80
2008,05,31,01,53,7.80
2008,05,31,01,54,7.80
2008,05,31,01,55,7.80
2008,05,31,01,56,7.80
2008,05,31,01,57,7.80
2008,05,31,01,58,7.80
2008,05,31,01,59,7.80
2008,05,31,02,00,7.80
2008,05,31,02,01,7.80
2008,05,31,02,02,7.80
2008,05,31,02,03,7.80
2008,05,31,02,04,7.80
2008,05,31,02,05,7.80
2008,05,31,02,06,7.80
2008,05,31,02,07,7.80
2008,05,31,02,08,7.80
2008,05,31,02,09,7.80
2008,05,31,02,10,7.80
2008,05,31,02,11,7.80
2008,05,31,02,12,7.80
2008,05,31,02,13,7.80
2008,05,31,02,14,7.80
2008,05,31,02,15,7.80
2008,05,31,02,16,7.70
2008,05,31,02,17,7.70
2008,05,31,02,18,7.70
2008,05,31,02,19,7.70
2008,05,31,02,20,7.70
2008,05,31,02,21,7.70
2008,05,31,02,22,7.70
2008,05,31,02,23,7.70
2008,05,31,02,24,7.70
2008,05,31,02,25,7.70
2008,05,31,02,26,7.70
2008,05,31,02,27,7.70
2008,05,31,02,28,7.70
2008,05,31,02,29,7.70
2008,05,31,02,30,7.70
2008,05,31,02,31,7.60
2008,05,31,02,32,7.60
2008,05,31,02,33,7.60
2008,05,31,02,34,7.60
2008,05,31,02,35,7.60
2008,05,31,02,36,7.60
2008,05,31,02,37,7.60
2008,05,31,02,38,7.60
2008,05,31,02,39,7.60
2008,05,31,02,40,7.60
2008,05,31,02,41,7.60
2008,05,31,02,42,7.60
2008,05,31,02,43,7.60
2008,05,31,02,44,7.60
2008,05,31,02,45,7.60
2008,05,31,02,46,7.60
2008,05,31,02,47,7.60
2008,05,31,02,48,7.60
2008,05,31,02,49,7.60
2008,05,31,02,50,7.60
2008,05,31,02,51,7.60
2008,05,31,02,52,7.50
2008,05,31,02,53,7.50
2008,05,31,02,54,7.50
2008,05,31,02,55,7.50
2008,05,31,02,56,7.50
2008,05,31,02,57,7.50
2008,05,31,02,58,7.50
2008,05,31,02,59,7.50
2008,05,31,03,00,7.50
2008,05,31,03,01,7.50
2008,05,31,03,02,7.50
2008,05,31,03,03,7.50
2008,05,31,03,04,7.50
2008,05,31,03,05,7.40
2008,05,31,03,06,7.40
2008,05,31,03,07,7.40
2008,05,31,03,08,7.40
2008,05,31,03,09,7.30
2008,05,31,03,10,7.30
2008,05,31,03,11,7.30
2008,05,31,03,12,7.30
2008,05,31,03,13,7.30
2008,05,31,03,14,7.20
2008,05,31,03,15,7.20
2008,05,31,03,16,7.20
2008,05,31,03,17,7.20
2008,05,31,03,18,7.20
2008,05,31,03,19,7.20
2008,05,31,03,20,7.20
2008,05,31,03,21,7.20
2008,05,31,03,22,7.20
2008,05,31,03,23,7.20
2008,05,31,03,24,7.20
2008,05,31,03,25,7.20
2008,05,31,03,26,7.20
2008,05,31,03,27,7.20
2008,05,31,03,28,7.20
2008,05,31,03,29,7.20
2008,05,31,03,30,7.20
2008,05,31,03,31,7.20
2008,05,31,03,32,7.20
2008,05,31,03,33,7.20
2008,05,31,03,34,7.20
2008,05,31,03,35,7.20
2008,05,31,03,36,7.10
2008,05,31,03,37,7.10
2008,05,31,03,38,7.10
2008,05,31,03,39,7.10
2008,05,31,03,40,7.10
2008,05,31,03,41,7.10
2008,05,31,03,42,7.10
2008,05,31,03,43,7.10
2008,05,31,03,44,7.10
2008,05,31,03,45,7.10
2008,05,31,03,46,7.00
2008,05,31,03,47,7.00
2008,05,31,03,48,7.00
2008,05,31,03,49,7.00
2008,05,31,03,50,7.00
2008,05,31,03,51,7.00
2008,05,31,03,52,7.00
2008,05,31,03,53,7.00
2008,05,31,03,54,7.00
2008,05,31,03,55,7.00
2008,05,31,03,56,7.00
2008,05,31,03,57,7.00
2008,05,31,03,58,6.90
2008,05,31,03,59,6.90
2008,05,31,04,00,6.90
2008,05,31,04,01,6.90
2008,05,31,04,02,6.90
2008,05,31,04,03,6.90
2008,05,31,04,04,6.90
2008,05,31,04,05,6.90
2008,05,31,04,06,6.80
2008,05,31,04,07,6.80
2008,05,31,04,08,6.80
2008,05,31,04,09,6.80
2008,05,31,04,10,6.80
2008,05,31,04,11,6.80
2008,05,31,04,12,6.80
2008,05,31,04,13,6.80
2008,05,31,04,14,6.80
2008,05,31,04,15,6.80
2008,05,31,04,16,6.80
2008,05,31,04,17,6.80
2008,05,31,04,18,6.80
2008,05,31,04,19,6.80
2008,05,31,04,20,6.80
2008,05,31,04,21,6.80
2008,05,31,04,22,6.80
2008,05,31,04,23,6.80
2008,05,31,04,24,6.80
2008,05,31,04,25,6.80
2008,05,31,04,26,6.80
2008,05,31,04,27,6.80
2008,05,31,04,28,6.80
2008,05,31,04,29,6.80
2008,05,31,04,30,6.80
2008,05,31,04,31,6.80
2008,05,31,04,32,6.80
2008,05,31,04,33,6.80
2008,05,31,04,34,6.80
2008,05,31,04,35,6.80
2008,05,31,04,36,6.80
2008,05,31,04,37,6.90
2008,05,31,04,38,6.90
2008,05,31,04,39,6.90
2008,05,31,04,40,6.90
2008,05,31,04,41,6.90
2008,05,31,04,42,6.90
2008,05,31,04,43,6.90
2008,05,31,04,44,6.90
2008,05,31,04,45,6.90
2008,05,31,04,46,6.90
2008,05,31,04,47,6.90
2008,05,31,04,48,6.90
2008,05,31,04,49,6.90
2008,05,31,04,50,6.90
2008,05,31,04,51,6.90
2008,05,31,04,52,6.90
2008,05,31,04,53,6.90
2008,05,31,04,54,6.90
2008,05,31,04,55,6.90
2008,05,31,04,56,6.90
2008,05,31,04,57,6.90
2008,05,31,04,58,6.90
2008,05,31,04,59,6.90
2008,05,31,05,00,6.90
2008,05,31,05,01,6.90
2008,05,31,05,02,6.90
2008,05,31,05,03,6.90
2008,05,31,05,04,6.80
2008,05,31,05,05,6.80
2008,05,31,05,06,6.80
2008,05,31,05,07,6.80
2008,05,31,05,08,6.80
2008,05,31,05,09,6.80
2008,05,31,05,10,6.80
2008,05,31,05,11,6.80
2008,05,31,05,12,6.80
2008,05,31,05,13,6.90
2008,05,31,05,14,6.90
2008,05,31,05,15,6.90
2008,05,31,05,16,6.90
2008,05,31,05,17,6.90
2008,05,31,05,18,6.90
2008,05,31,05,19,6.90
2008,05,31,05,20,6.90
2008,05,31,05,21,6.90
2008,05,31,05,22,6.90
2008,05,31,05,23,6.80
2008,05,31,05,24,6.90
2008,05,31,05,25,6.90
2008,05,31,05,26,6.90
2008,05,31,05,27,6.80
2008,05,31,05,28,6.80
2008,05,31,05,29,6.80
2008,05,31,05,30,6.80
2008,05,31,05,31,6.80
2008,05,31,05,32,6.80
2008,05,31,05,33,6.80
2008,05,31,05,34,6.80
2008,05,31,05,35,6.80
2008,05,31,05,36,6.80
2008,05,31,05,37,6.90
2008,05,31,05,38,6.90
2008,05,31,05,39,6.90
2008,05,31,05,40,6.90
2008,05,31,05,41,6.90
2008,05,31,05,42,6.90
2008,05,31,05,43,6.90
2008,05,31,05,44,6.90
2008,05,31,05,45,6.90
2008,05,31,05,46,6.90
2008,05,31,05,47,6.90
2008,05,31,05,48,6.90
2008,05,31,05,49,6.90
2008,05,31,05,50,7.00
2008,05,31,05,51,7.00
2008,05,31,05,52,7.00
2008,05,31,05,53,7.00
2008,05,31,05,54,7.10
2008,05,31,05,55,7.10
2008,05,31,05,56,7.10
2008,05,31,05,57,7.10
2008,05,31,05,58,7.20
2008,05,31,05,59,7.20
2008,05,31,06,00,7.20
2008,05,31,06,01,7.20
2008,05,31,06,02,7.20
2008,05,31,06,03,7.30
2008,05,31,06,04,7.30
2008,05,31,06,05,7.30
2008,05,31,06,06,7.30
2008,05,31,06,07,7.40
2008,05,31,06,08,7.40
2008,05,31,06,09,7.40
2008,05,31,06,10,7.40
2008,05,31,06,11,7.50
2008,05,31,06,12,7.50
2008,05,31,06,13,7.50
2008,05,31,06,14,7.60
2008,05,31,06,15,7.60
2008,05,31,06,16,7.60
2008,05,31,06,17,7.60
2008,05,31,06,18,7.70
2008,05,31,06,19,7.70
2008,05,31,06,20,7.70
2008,05,31,06,21,7.80
2008,05,31,06,22,7.80
2008,05,31,06,23,7.80
2008,05,31,06,24,7.80
2008,05,31,06,25,7.90
2008,05,31,06,26,7.90
2008,05,31,06,27,7.90
2008,05,31,06,28,7.90
2008,05,31,06,29,8.00
2008,05,31,06,30,8.00
2008,05,31,06,31,8.10
2008,05,31,06,32,8.10
2008,05,31,06,33,8.10
2008,05,31,06,34,8.20
2008,05,31,06,35,8.20
2008,05,31,06,36,8.20
2008,05,31,06,37,8.30
2008,05,31,06,38,8.30
2008,05,31,06,39,8.30
2008,05,31,06,40,8.30
2008,05,31,06,41,8.40
2008,05,31,06,42,8.40
2008,05,31,06,43,8.40
2008,05,31,06,44,8.40
2008,05,31,06,45,8.50
2008,05,31,06,46,8.50
2008,05,31,06,47,8.50
2008,05,31,06,48,8.60
2008,05,31,06,49,8.60
2008,05,31,06,50,8.60
2008,05,31,06,51,8.60
2008,05,31,06,52,8.70
2008,05,31,06,53,8.70
2008,05,31,06,54,8.70
2008,05,31,06,55,8.70
2008,05,31,06,56,8.70
2008,05,31,06,57,8.80
2008,05,31,06,58,8.80
2008,05,31,06,59,8.80
2008,05,31,07,00,8.90
2008,05,31,07,01,9.00
2008,05,31,07,02,9.00
2008,05,31,07,03,9.10
2008,05,31,07,04,9.10
2008,05,31,07,05,9.20
2008,05,31,07,06,9.20
2008,05,31,07,07,9.30
2008,05,31,07,08,9.40
2008,05,31,07,09,9.40
2008,05,31,07,10,9.50
2008,05,31,07,11,9.60
2008,05,31,07,12,9.60
2008,05,31,07,13,9.70
2008,05,31,07,14,9.70
2008,05,31,07,15,9.80
2008,05,31,07,16,9.90
2008,05,31,07,17,9.90
2008,05,31,07,18,10.00
2008,05,31,07,19,10.10
2008,05,31,07,20,10.20
2008,05,31,07,21,10.20
2008,05,31,07,22,10.30
2008,05,31,07,23,10.40
2008,05,31,07,24,10.40
2008,05,31,07,25,10.50
2008,05,31,07,26,10.60
2008,05,31,07,27,10.60
2008,05,31,07,28,10.70
2008,05,31,07,29,10.80
2008,05,31,07,30,10.90
2008,05,31,07,31,11.00
2008,05,31,07,32,11.10
2008,05,31,07,33,11.20
2008,05,31,07,34,11.20
2008,05,31,07,35,11.30
2008,05,31,07,36,11.30
2008,05,31,07,37,11.40
2008,05,31,07,38,11.50
2008,05,31,07,39,11.50
2008,05,31,07,40,11.60
2008,05,31,07,41,11.60
2008,05,31,07,42,11.60
2008,05,31,07,43,11.70
2008,05,31,07,44,11.70
2008,05,31,07,45,11.70
2008,05,31,07,46,11.70
2008,05,31,07,47,11.80
2008,05,31,07,48,11.80
2008,05,31,07,49,11.80
2008,05,31,07,50,11.80
2008,05,31,07,51,11.80
2008,05,31,07,52,11.90
2008,05,31,07,53,11.90
2008,05,31,07,54,11.90
2008,05,31,07,55,12.00
2008,05,31,07,56,12.00
2008,05,31,07,57,12.00
2008,05,31,07,58,12.10
2008,05,31,07,59,12.10
2008,05,31,08,00,12.10
2008,05,31,08,01,12.10
2008,05,31,08,02,12.20
2008,05,31,08,03,12.20
2008,05,31,08,04,12.20
2008,05,31,08,05,12.20
2008,05,31,08,06,12.20
2008,05,31,08,07,12.30
2008,05,31,08,08,12.30
2008,05,31,08,09,12.30
2008,05,31,08,10,12.30
2008,05,31,08,11,12.30
2008,05,31,08,12,12.30
2008,05,31,08,13,12.40
2008,05,31,08,14,12.40
2008,05,31,08,15,12.40
2008,05,31,08,16,12.50
2008,05,31,08,17,12.50
2008,05,31,08,18,12.50
2008,05,31,08,19,12.60
2008,05,31,08,20,12.60
2008,05,31,08,21,12.60
2008,05,31,08,22,12.70
2008,05,31,08,23,12.70
2008,05,31,08,24,12.70
2008,05,31,08,25,12.70
2008,05,31,08,26,12.80
2008,05,31,08,27,12.80
2008,05,31,08,28,12.80
2008,05,31,08,29,12.90
2008,05,31,08,30,12.90
2008,05,31,08,31,12.90
2008,05,31,08,32,12.90
2008,05,31,08,33,13.00
2008,05,31,08,34,13.00
2008,05,31,08,35,13.00
2008,05,31,08,36,13.00
2008,05,31,08,37,13.10
2008,05,31,08,38,13.10
2008,05,31,08,39,13.10
2008,05,31,08,40,13.10
2008,05,31,08,41,13.10
2008,05,31,08,42,13.10
2008,05,31,08,43,13.20
2008,05,31,08,44,13.20
2008,05,31,08,45,13.20
2008,05,31,08,46,13.30
2008,05,31,08,47,13.30
2008,05,31,08,48,13.30
2008,05,31,08,49,13.30
2008,05,31,08,50,13.30
2008,05,31,08,51,13.30
2008,05,31,08,52,13.30
2008,05,31,08,53,13.30
2008,05,31,08,54,13.30
2008,05,31,08,55,13.30
2008,05,31,08,56,13.30
2008,05,31,08,57,13.30
2008,05,31,08,58,13.30
2008,05,31,08,59,13.30
2008,05,31,09,00,13.40
2008,05,31,09,01,13.40
2008,05,31,09,02,13.50
2008,05,31,09,03,13.50
2008,05,31,09,04,13.60
2008,05,31,09,05,13.70
2008,05,31,09,06,13.70
2008,05,31,09,07,13.70
2008,05,31,09,08,13.80
2008,05,31,09,09,13.80
2008,05,31,09,10,13.80
2008,05,31,09,11,13.80
2008,05,31,09,12,13.90
2008,05,31,09,13,13.90
2008,05,31,09,14,13.90
2008,05,31,09,15,14.00
2008,05,31,09,16,14.10
2008,05,31,09,17,14.10
2008,05,31,09,18,14.20
2008,05,31,09,19,14.20
2008,05,31,09,20,14.30
2008,05,31,09,21,14.30
2008,05,31,09,22,14.40
2008,05,31,09,23,14.40
2008,05,31,09,24,14.40
2008,05,31,09,25,14.50
2008,05,31,09,26,14.50
2008,05,31,09,27,14.50
2008,05,31,09,28,14.60
2008,05,31,09,29,14.60
2008,05,31,09,30,14.60
2008,05,31,09,31,14.70
2008,05,31,09,32,14.70
2008,05,31,09,33,14.80
2008,05,31,09,34,14.80
2008,05,31,09,35,14.90
2008,05,31,09,36,14.90
2008,05,31,09,37,14.90
2008,05,31,09,38,14.80
2008,05,31,09,39,14.80
2008,05,31,09,40,14.90
2008,05,31,09,41,14.90
2008,05,31,09,42,15.00
2008,05,31,09,43,15.00
2008,05,31,09,44,15.00
2008,05,31,09,45,15.00
2008,05,31,09,46,15.00
2008,05,31,09,47,15.10
2008,05,31,09,48,15.20
2008,05,31,09,49,15.30
2008,05,31,09,50,15.30
2008,05,31,09,51,15.40
2008,05,31,09,52,15.40
2008,05,31,09,53,15.40
2008,05,31,09,54,15.40
2008,05,31,09,55,15.40
2008,05,31,09,56,15.50
2008,05,31,09,57,15.50
2008,05,31,09,58,15.60
2008,05,31,09,59,15.70
2008,05,31,10,00,15.70
2008,05,31,10,01,15.80
2008,05,31,10,02,15.90
2008,05,31,10,03,15.90
2008,05,31,10,04,16.00
2008,05,31,10,05,16.10
2008,05,31,10,06,16.20
2008,05,31,10,07,16.20
2008,05,31,10,08,16.30
2008,05,31,10,09,16.40
2008,05,31,10,10,16.50
2008,05,31,10,11,16.50
2008,05,31,10,12,16.60
2008,05,31,10,13,16.70
2008,05,31,10,14,16.70
2008,05,31,10,15,16.80
2008,05,31,10,16,16.80
2008,05,31,10,17,16.80
2008,05,31,10,18,16.70
2008,05,31,10,19,16.70
2008,05,31,10,20,16.60
2008,05,31,10,21,16.60
2008,05,31,10,22,16.60
2008,05,31,10,23,16.60
2008,05,31,10,24,16.60
2008,05,31,10,25,16.60
2008,05,31,10,26,16.70
2008,05,31,10,27,16.80
2008,05,31,10,28,16.90
2008,05,31,10,29,17.00
2008,05,31,10,30,17.10
2008,05,31,10,31,17.20
2008,05,31,10,32,17.30
2008,05,31,10,33,17.30
2008,05,31,10,34,17.40
2008,05,31,10,35,17.40
2008,05,31,10,36,17.40
2008,05,31,10,37,17.30
2008,05,31,10,38,17.30
2008,05,31,10,39,17.30
2008,05,31,10,40,17.30
2008,05,31,10,41,17.30
2008,05,31,10,42,17.30
2008,05,31,10,43,17.30
2008,05,31,10,44,17.30
2008,05,31,10,45,17.40
2008,05,31,10,46,17.50
2008,05,31,10,47,17.50
2008,05,31,10,48,17.60
2008,05,31,10,49,17.70
2008,05,31,10,50,17.70
2008,05,31,10,51,17.70
2008,05,31,10,52,17.80
2008,05,31,10,53,17.80
2008,05,31,10,54,17.70
2008,05,31,10,55,17.80
2008,05,31,10,56,17.70
2008,05,31,10,57,17.70
2008,05,31,10,58,17.60
2008,05,31,10,59,17.60
2008,05,31,11,00,17.70
2008,05,31,11,01,17.60
2008,05,31,11,02,17.60
2008,05,31,11,03,17.60
2008,05,31,11,04,17.60
2008,05,31,11,05,17.70
2008,05,31,11,06,17.70
2008,05,31,11,07,17.70
2008,05,31,11,08,17.70
2008,05,31,11,09,17.70
2008,05,31,11,10,17.80
2008,05,31,11,11,17.80
2008,05,31,11,12,17.80
2008,05,31,11,13,17.80
2008,05,31,11,14,17.70
2008,05,31,11,15,17.70
2008,05,31,11,16,17.70
2008,05,31,11,17,17.70
2008,05,31,11,18,17.70
2008,05,31,11,19,17.70
2008,05,31,11,20,17.70
2008,05,31,11,21,17.70
2008,05,31,11,22,17.70
2008,05,31,11,23,17.70
2008,05,31,11,24,17.70
2008,05,31,11,25,17.70
2008,05,31,11,26,17.70
2008,05,31,11,27,17.60
2008,05,31,11,28,17.60
2008,05,31,11,29,17.50
2008,05,31,11,30,17.40
2008,05,31,11,31,17.30
2008,05,31,11,32,17.30
2008,05,31,11,33,17.30
2008,05,31,11,34,17.30
2008,05,31,11,35,17.40
2008,05,31,11,36,17.50
2008,05,31,11,37,17.60
2008,05,31,11,38,17.60
2008,05,31,11,39,17.60
2008,05,31,11,40,17.60
2008,05,31,11,41,17.70
2008,05,31,11,42,17.70
2008,05,31,11,43,17.60
2008,05,31,11,44,17.70
2008,05,31,11,45,17.60
2008,05,31,11,46,17.60
2008,05,31,11,47,17.60
2008,05,31,11,48,17.70
2008,05,31,11,49,17.70
2008,05,31,11,50,17.70
2008,05,31,11,51,17.70
2008,05,31,11,52,17.70
2008,05,31,11,53,17.70
2008,05,31,11,54,17.70
2008,05,31,11,55,17.60
2008,05,31,11,56,17.50
2008,05,31,11,57,17.50
2008,05,31,11,58,17.50
2008,05,31,11,59,17.60
2008,05,31,12,00,17.70
2008,05,31,12,01,17.80
2008,05,31,12,02,17.80
2008,05,31,12,03,17.90
2008,05,31,12,04,17.90
2008,05,31,12,05,18.00
2008,05,31,12,06,18.10
2008,05,31,12,07,18.10
2008,05,31,12,08,18.10
2008,05,31,12,09,18.10
2008,05,31,12,10,18.10
2008,05,31,12,11,18.00
2008,05,31,12,12,17.70
2008,05,31,12,13,17.30
2008,05,31,12,14,16.80
2008,05,31,12,15,16.40
2008,05,31,12,16,16.10
2008,05,31,12,17,15.90
2008,05,31,12,18,15.70
2008,05,31,12,19,15.60
2008,05,31,12,20,15.40
2008,05,31,12,21,15.30
2008,05,31,12,22,15.20
2008,05,31,12,23,15.10
2008,05,31,12,24,15.10
2008,05,31,12,25,15.10
2008,05,31,12,26,15.20
2008,05,31,12,27,15.40
2008,05,31,12,28,15.50
2008,05,31,12,29,15.70
2008,05,31,12,30,15.80
2008,05,31,12,31,15.90
2008,05,31,12,32,16.00
2008,05,31,12,33,16.00
2008,05,31,12,34,15.90
2008,05,31,12,35,15.80
2008,05,31,12,36,15.60
2008,05,31,12,37,15.50
2008,05,31,12,38,15.40
2008,05,31,12,39,15.50
2008,05,31,12,40,15.60
2008,05,31,12,41,15.80
2008,05,31,12,42,15.90
2008,05,31,12,43,16.10
2008,05,31,12,44,16.20
2008,05,31,12,45,16.30
2008,05,31,12,46,16.30
2008,05,31,12,47,16.30
2008,05,31,12,48,16.20
2008,05,31,12,49,16.30
2008,05,31,12,50,16.50
2008,05,31,12,51,16.70
2008,05,31,12,52,16.90
2008,05,31,12,53,17.00
2008,05,31,12,54,17.00
2008,05,31,12,55,17.00
2008,05,31,12,56,17.10
2008,05,31,12,57,17.10
2008,05,31,12,58,17.20
2008,05,31,12,59,17.20
2008,05,31,13,00,17.20
2008,05,31,13,01,17.20
2008,05,31,13,02,17.10
2008,05,31,13,03,17.10
2008,05,31,13,04,17.10
2008,05,31,13,05,17.10
2008,05,31,13,06,17.00
2008,05,31,13,07,17.00
2008,05,31,13,08,17.00
2008,05,31,13,09,16.90
2008,05,31,13,10,16.90
2008,05,31,13,11,17.00
2008,05,31,13,12,17.00
2008,05,31,13,13,17.00
2008,05,31,13,14,17.00
2008,05,31,13,15,17.10
2008,05,31,13,16,17.10
2008,05,31,13,17,17.20
2008,05,31,13,18,17.20
2008,05,31,13,19,17.30
2008,05,31,13,20,17.20
2008,05,31,13,21,17.10
2008,05,31,13,22,17.10
2008,05,31,13,23,17.20
2008,05,31,13,24,17.30
2008,05,31,13,25,17.30
2008,05,31,13,26,17.40
2008,05,31,13,27,17.50
2008,05,31,13,28,17.60
2008,05,31,13,29,17.70
2008,05,31,13,30,17.70
2008,05,31,13,31,17.70
2008,05,31,13,32,17.70
2008,05,31,13,33,17.70
2008,05,31,13,34,17.70
2008,05,31,13,35,17.70
2008,05,31,13,36,17.70
2008,05,31,13,37,17.80
2008,05,31,13,38,17.90
2008,05,31,13,39,18.00
2008,05,31,13,40,18.10
2008,05,31,13,41,18.10
2008,05,31,13,42,18.20
2008,05,31,13,43,18.10
2008,05,31,13,44,18.00
2008,05,31,13,45,18.00
2008,05,31,13,46,18.10
2008,05,31,13,47,18.10
2008,05,31,13,48,18.10
2008,05,31,13,49,18.20
2008,05,31,13,50,18.20
2008,05,31,13,51,18.20
2008,05,31,13,52,18.20
2008,05,31,13,53,18.20
2008,05,31,13,54,18.10
2008,05,31,13,55,18.00
2008,05,31,13,56,18.10
2008,05,31,13,57,18.10
2008,05,31,13,58,18.10
2008,05,31,13,59,18.10
2008,05,31,14,00,18.10
2008,05,31,14,01,18.10
2008,05,31,14,02,18.20
2008,05,31,14,03,18.30
2008,05,31,14,04,18.50
2008,05,31,14,05,18.60
2008,05,31,14,06,18.70
2008,05,31,14,07,18.90
2008,05,31,14,08,19.00
2008,05,31,14,09,19.20
2008,05,31,14,10,19.30
2008,05,31,14,11,19.40
2008,05,31,14,12,19.40
2008,05,31,14,13,19.40
2008,05,31,14,14,19.30
2008,05,31,14,15,19.30
2008,05,31,14,16,19.20
2008,05,31,14,17,19.10
2008,05,31,14,18,19.00
2008,05,31,14,19,18.90
2008,05,31,14,20,18.80
2008,05,31,14,21,18.70
2008,05,31,14,22,18.70
2008,05,31,14,23,18.60
2008,05,31,14,24,18.60
2008,05,31,14,25,18.60
2008,05,31,14,26,18.60
2008,05,31,14,27,18.50
2008,05,31,14,28,18.40
2008,05,31,14,29,18.10
2008,05,31,14,30,17.80
2008,05,31,14,31,17.50
2008,05,31,14,32,17.20
2008,05,31,14,33,17.10
2008,05,31,14,34,17.00
2008,05,31,14,35,16.90
2008,05,31,14,36,16.90
2008,05,31,14,37,17.10
2008,05,31,14,38,17.20
2008,05,31,14,39,17.30
2008,05,31,14,40,17.50
2008,05,31,14,41,17.60
2008,05,31,14,42,17.70
2008,05,31,14,43,17.70
2008,05,31,14,44,17.90
2008,05,31,14,45,18.10
2008,05,31,14,46,18.40
2008,05,31,14,47,18.70
2008,05,31,14,48,18.90
2008,05,31,14,49,19.10
2008,05,31,14,50,19.20
2008,05,31,14,51,19.20
2008,05,31,14,52,19.30
2008,05,31,14,53,19.30
2008,05,31,14,54,19.20
2008,05,31,14,55,19.10
2008,05,31,14,56,19.00
2008,05,31,14,57,19.00
2008,05,31,14,58,19.10
2008,05,31,14,59,19.10
2008,05,31,15,00,19.10
2008,05,31,15,01,19.20
2008,05,31,15,02,19.20
2008,05,31,15,03,19.20
2008,05,31,15,04,19.20
2008,05,31,15,05,19.10
2008,05,31,15,06,19.10
2008,05,31,15,07,19.10
2008,05,31,15,08,19.20
2008,05,31,15,09,19.10
2008,05,31,15,10,19.20
2008,05,31,15,11,19.30
2008,05,31,15,12,19.40
2008,05,31,15,13,19.60
2008,05,31,15,14,19.60
2008,05,31,15,15,19.60
2008,05,31,15,16,19.60
2008,05,31,15,17,19.60
2008,05,31,15,18,19.50
2008,05,31,15,19,19.50
2008,05,31,15,20,19.40
2008,05,31,15,21,19.20
2008,05,31,15,22,19.00
2008,05,31,15,23,19.10
2008,05,31,15,24,19.10
2008,05,31,15,25,19.20
2008,05,31,15,26,19.20
2008,05,31,15,27,19.20
2008,05,31,15,28,19.20
2008,05,31,15,29,19.30
2008,05,31,15,30,19.40
2008,05,31,15,31,19.50
2008,05,31,15,32,19.50
2008,05,31,15,33,19.50
2008,05,31,15,34,19.60
2008,05,31,15,35,19.70
2008,05,31,15,36,19.70
2008,05,31,15,37,19.80
2008,05,31,15,38,19.80
2008,05,31,15,39,19.90
2008,05,31,15,40,19.90
2008,05,31,15,41,20.00
2008,05,31,15,42,20.20
2008,05,31,15,43,20.30
2008,05,31,15,44,20.50
2008,05,31,15,45,20.50
2008,05,31,15,46,20.70
2008,05,31,15,47,20.80
2008,05,31,15,48,20.80
2008,05,31,15,49,20.80
2008,05,31,15,50,20.70
2008,05,31,15,51,20.60
2008,05,31,15,52,20.60
2008,05,31,15,53,20.60
2008,05,31,15,54,20.70
2008,05,31,15,55,20.80
2008,05,31,15,56,20.70
2008,05,31,15,57,20.60
2008,05,31,15,58,20.40
2008,05,31,15,59,20.30
2008,05,31,16,00,20.30
2008,05,31,16,01,20.40
2008,05,31,16,02,20.50
2008,05,31,16,03,20.60
2008,05,31,16,04,20.50
2008,05,31,16,05,20.50
2008,05,31,16,06,20.50
2008,05,31,16,07,20.60
2008,05,31,16,08,20.70
2008,05,31,16,09,20.70
2008,05,31,16,10,20.70
2008,05,31,16,11,20.80
2008,05,31,16,12,20.80
2008,05,31,16,13,20.80
2008,05,31,16,14,20.90
2008,05,31,16,15,21.00
2008,05,31,16,16,21.10
2008,05,31,16,17,21.10
2008,05,31,16,18,21.20
2008,05,31,16,19,21.30
2008,05,31,16,20,21.30
2008,05,31,16,21,21.20
2008,05,31,16,22,21.20
2008,05,31,16,23,21.20
2008,05,31,16,24,21.10
2008,05,31,16,25,20.90
2008,05,31,16,26,20.60
2008,05,31,16,27,20.30
2008,05,31,16,28,20.00
2008,05,31,16,29,19.70
2008,05,31,16,30,19.40
2008,05,31,16,31,19.10
2008,05,31,16,32,19.00
2008,05,31,16,33,19.00
2008,05,31,16,34,19.10
2008,05,31,16,35,19.20
2008,05,31,16,36,19.30
2008,05,31,16,37,19.50
2008,05,31,16,38,19.60
2008,05,31,16,39,19.80
2008,05,31,16,40,19.90
2008,05,31,16,41,19.90
2008,05,31,16,42,20.00
2008,05,31,16,43,20.00
2008,05,31,16,44,20.10
2008,05,31,16,45,20.20
2008,05,31,16,46,20.20
2008,05,31,16,47,20.10
2008,05,31,16,48,20.00
2008,05,31,16,49,19.90
2008,05,31,16,50,19.80
2008,05,31,16,51,19.60
2008,05,31,16,52,19.60
2008,05,31,16,53,19.60
2008,05,31,16,54,19.70
2008,05,31,16,55,19.70
2008,05,31,16,56,19.70
2008,05,31,16,57,19.80
2008,05,31,16,58,19.80
2008,05,31,16,59,19.90
2008,05,31,17,00,20.00
2008,05,31,17,01,20.10
2008,05,31,17,02,20.10
2008,05,31,17,03,20.10
2008,05,31,17,04,20.00
2008,05,31,17,05,19.80
2008,05,31,17,06,19.70
2008,05,31,17,07,19.50
2008,05,31,17,08,19.30
2008,05,31,17,09,19.20
2008,05,31,17,10,19.20
2008,05,31,17,11,19.10
2008,05,31,17,12,18.90
2008,05,31,17,13,18.80
2008,05,31,17,14,18.80
2008,05,31,17,15,18.70
2008,05,31,17,16,18.70
2008,05,31,17,17,18.70
2008,05,31,17,18,18.70
2008,05,31,17,19,18.80
2008,05,31,17,20,18.70
2008,05,31,17,21,18.70
2008,05,31,17,22,18.70
2008,05,31,17,23,18.60
2008,05,31,17,24,18.60
2008,05,31,17,25,18.60
2008,05,31,17,26,18.60
2008,05,31,17,27,18.60
2008,05,31,17,28,18.60
2008,05,31,17,29,18.60
2008,05,31,17,30,18.50
2008,05,31,17,31,18.50
2008,05,31,17,32,18.40
2008,05,31,17,33,18.40
2008,05,31,17,34,18.40
2008,05,31,17,35,18.40
2008,05,31,17,36,18.40
2008,05,31,17,37,18.40
2008,05,31,17,38,18.40